iso_date,Year,Hour,Min,DOY,POS_DOY,Lat,Lon,BP,Ts,Ta,has_bp,has_ts,has_ta,BuoyID,Buoy_Type,Buoy_Owner,Logistics,Hemisphere
2021-11-23T16:00:02Z,2021,16,0,327.6667,327.6667,61.667,-58.231,-999.0,3.3,-999.0,no,yes,no,300234068346200,SVPGHI,AOML,UNKNOWN,North
2021-11-23T16:59:57Z,2021,17,0,327.7083,327.7083,61.664,-58.225,-999.0,3.38,-999.0,no,yes,no,300234068346200,SVPGHI,AOML,UNKNOWN,North
2021-11-23T18:00:00Z,2021,18,0,327.75,327.75,61.661,-58.221,-999.0,3.38,-999.0,no,yes,no,300234068346200,SVPGHI,AOML,UNKNOWN,North
2021-11-23T19:03:56Z,2021,19,4,327.7944,327.7944,61.66,-58.221,-999.0,3.37,-999.0,no,yes,no,300234068346200,SVPGHI,AOML,UNKNOWN,North
2021-11-23T21:00:00Z,2021,21,0,327.875,327.875,61.663,-58.219,-999.0,3.38,-999.0,no,yes,no,300234068346200,SVPGHI,AOML,UNKNOWN,North
2021-11-23T22:03:04Z,2021,22,3,327.9188,327.9188,61.667,-58.21,-999.0,3.37,-999.0,no,yes,no,300234068346200,SVPGHI,AOML,UNKNOWN,North
2021-11-23T23:00:57Z,2021,23,1,327.959,327.959,61.665,-58.204,-999.0,3.35,-999.0,no,yes,no,300234068346200,SVPGHI,AOML,UNKNOWN,North
2021-11-24T00:04:01Z,2021,0,4,328.0028,328.0028,61.661,-58.197,-999.0,3.34,-999.0,no,yes,no,300234068346200,SVPGHI,AOML,UNKNOWN,North
2021-11-24T01:00:02Z,2021,1,0,328.0417,328.0417,61.655,-58.186,-999.0,3.33,-999.0,no,yes,no,300234068346200,SVPGHI,AOML,UNKNOWN,North
2021-11-24T02:00:57Z,2021,2,1,328.084,328.084,61.648,-58.18,-999.0,3.33,-999.0,no,yes,no,300234068346200,SVPGHI,AOML,UNKNOWN,North
2021-11-24T03:01:00Z,2021,3,1,328.1257,328.1257,61.64,-58.185,-999.0,3.33,-999.0,no,yes,no,300234068346200,SVPGHI,AOML,UNKNOWN,North
2021-11-24T04:00:02Z,2021,4,0,328.1667,328.1667,61.634,-58.192,-999.0,3.33,-999.0,no,yes,no,300234068346200,SVPGHI,AOML,UNKNOWN,North
2021-11-24T04:59:57Z,2021,5,0,328.2083,328.2083,61.632,-58.201,-999.0,3.34,-999.0,no,yes,no,300234068346200,SVPGHI,AOML,UNKNOWN,North
2021-11-24T06:00:00Z,2021,6,0,328.25,328.25,61.634,-58.209,-999.0,3.32,-999.0,no,yes,no,300234068346200,SVPGHI,AOML,UNKNOWN,North
2021-11-24T07:00:02Z,2021,7,0,328.2917,328.2917,61.636,-58.208,-999.0,3.31,-999.0,no,yes,no,300234068346200,SVPGHI,AOML,UNKNOWN,North
2021-11-24T08:00:57Z,2021,8,1,328.334,328.334,61.639,-58.205,-999.0,3.3,-999.0,no,yes,no,300234068346200,SVPGHI,AOML,UNKNOWN,North
2021-11-24T09:01:00Z,2021,9,1,328.3757,328.3757,61.643,-58.2,-999.0,3.3,-999.0,no,yes,no,300234068346200,SVPGHI,AOML,UNKNOWN,North
2021-11-24T10:01:03Z,2021,10,1,328.4174,328.4174,61.647,-58.196,-999.0,3.29,-999.0,no,yes,no,300234068346200,SVPGHI,AOML,UNKNOWN,North
2021-11-24T12:01:00Z,2021,12,1,328.5007,328.5007,61.646,-58.179,-999.0,3.29,-999.0,no,yes,no,300234068346200,SVPGHI,AOML,UNKNOWN,North
2021-11-24T13:00:02Z,2021,13,0,328.5417,328.5417,61.641,-58.177,-999.0,3.28,-999.0,no,yes,no,300234068346200,SVPGHI,AOML,UNKNOWN,North
2021-11-24T14:00:57Z,2021,14,1,328.584,328.584,61.636,-58.177,-999.0,3.26,-999.0,no,yes,no,300234068346200,SVPGHI,AOML,UNKNOWN,North
2021-11-24T15:01:00Z,2021,15,1,328.6257,328.6257,61.626,-58.183,-999.0,3.28,-999.0,no,yes,no,300234068346200,SVPGHI,AOML,UNKNOWN,North
2021-11-24T16:01:03Z,2021,16,1,328.6674,328.6674,61.624,-58.194,-999.0,3.27,-999.0,no,yes,no,300234068346200,SVPGHI,AOML,UNKNOWN,North
2021-11-24T16:59:57Z,2021,17,0,328.7083,328.7083,61.624,-58.205,-999.0,3.29,-999.0,no,yes,no,300234068346200,SVPGHI,AOML,UNKNOWN,North
2021-11-24T18:00:00Z,2021,18,0,328.75,328.75,61.624,-58.212,-999.0,3.28,-999.0,no,yes,no,300234068346200,SVPGHI,AOML,UNKNOWN,North
2021-11-24T19:00:02Z,2021,19,0,328.7917,328.7917,61.628,-58.218,-999.0,3.28,-999.0,no,yes,no,300234068346200,SVPGHI,AOML,UNKNOWN,North
2021-11-24T19:59:57Z,2021,20,0,328.8333,328.8333,61.633,-58.221,-999.0,3.3,-999.0,no,yes,no,300234068346200,SVPGHI,AOML,UNKNOWN,North
2021-11-24T21:00:00Z,2021,21,0,328.875,328.875,61.639,-58.222,-999.0,3.29,-999.0,no,yes,no,300234068346200,SVPGHI,AOML,UNKNOWN,North
2021-11-24T22:01:03Z,2021,22,1,328.9174,328.9174,61.646,-58.217,-999.0,3.28,-999.0,no,yes,no,300234068346200,SVPGHI,AOML,UNKNOWN,North
2021-11-24T23:00:57Z,2021,23,1,328.959,328.959,61.648,-58.212,-999.0,3.29,-999.0,no,yes,no,300234068346200,SVPGHI,AOML,UNKNOWN,North
2021-11-25T00:02:00Z,2021,0,2,329.0014,329.0014,61.649,-58.198,-999.0,3.29,-999.0,no,yes,no,300234068346200,SVPGHI,AOML,UNKNOWN,North
2021-11-25T01:00:02Z,2021,1,0,329.0417,329.0417,61.645,-58.189,-999.0,3.28,-999.0,no,yes,no,300234068346200,SVPGHI,AOML,UNKNOWN,North
2021-11-25T03:00:00Z,2021,3,0,329.125,329.125,61.63,-58.188,-999.0,3.29,-999.0,no,yes,no,300234068346200,SVPGHI,AOML,UNKNOWN,North
2021-11-25T04:00:02Z,2021,4,0,329.1667,329.1667,61.626,-58.198,-999.0,3.27,-999.0,no,yes,no,300234068346200,SVPGHI,AOML,UNKNOWN,North
2021-11-25T06:00:00Z,2021,6,0,329.25,329.25,61.626,-58.223,-999.0,3.3,-999.0,no,yes,no,300234068346200,SVPGHI,AOML,UNKNOWN,North
2021-11-25T07:00:02Z,2021,7,0,329.2917,329.2917,61.628,-58.231,-999.0,3.29,-999.0,no,yes,no,300234068346200,SVPGHI,AOML,UNKNOWN,North
2021-11-25T07:59:57Z,2021,8,0,329.3333,329.3333,61.633,-58.236,-999.0,3.33,-999.0,no,yes,no,300234068346200,SVPGHI,AOML,UNKNOWN,North
2021-11-25T09:01:00Z,2021,9,1,329.3757,329.3757,61.64,-58.24,-999.0,3.3,-999.0,no,yes,no,300234068346200,SVPGHI,AOML,UNKNOWN,North
2021-11-25T10:00:02Z,2021,10,0,329.4167,329.4167,61.647,-58.243,-999.0,3.29,-999.0,no,yes,no,300234068346200,SVPGHI,AOML,UNKNOWN,North
2021-11-25T10:59:57Z,2021,11,0,329.4583,329.4583,61.652,-58.242,-999.0,3.29,-999.0,no,yes,no,300234068346200,SVPGHI,AOML,UNKNOWN,North
2021-11-25T13:03:56Z,2021,13,4,329.5444,329.5444,61.654,-58.233,-999.0,3.29,-999.0,no,yes,no,300234068346200,SVPGHI,AOML,UNKNOWN,North
2021-11-25T13:59:57Z,2021,14,0,329.5833,329.5833,61.65,-58.233,-999.0,3.3,-999.0,no,yes,no,300234068346200,SVPGHI,AOML,UNKNOWN,North
2021-11-25T15:01:00Z,2021,15,1,329.6257,329.6257,61.645,-58.242,-999.0,3.32,-999.0,no,yes,no,300234068346200,SVPGHI,AOML,UNKNOWN,North
2021-11-25T18:00:00Z,2021,18,0,329.75,329.75,61.632,-58.28,-999.0,3.36,-999.0,no,yes,no,300234068346200,SVPGHI,AOML,UNKNOWN,North
2021-11-25T19:01:03Z,2021,19,1,329.7924,329.7924,61.634,-58.298,-999.0,3.35,-999.0,no,yes,no,300234068346200,SVPGHI,AOML,UNKNOWN,North
2021-11-25T20:00:57Z,2021,20,1,329.834,329.834,61.635,-58.313,-999.0,3.36,-999.0,no,yes,no,300234068346200,SVPGHI,AOML,UNKNOWN,North
2021-11-25T21:01:00Z,2021,21,1,329.8757,329.8757,61.635,-58.325,-999.0,3.36,-999.0,no,yes,no,300234068346200,SVPGHI,AOML,UNKNOWN,North
2021-11-25T22:01:03Z,2021,22,1,329.9174,329.9174,61.641,-58.336,-999.0,3.36,-999.0,no,yes,no,300234068346200,SVPGHI,AOML,UNKNOWN,North
2021-11-25T23:00:57Z,2021,23,1,329.959,329.959,61.646,-58.339,-999.0,3.37,-999.0,no,yes,no,300234068346200,SVPGHI,AOML,UNKNOWN,North
2021-11-26T00:00:00Z,2021,0,0,330.0,330.0,61.648,-58.337,-999.0,3.38,-999.0,no,yes,no,300234068346200,SVPGHI,AOML,UNKNOWN,North
2021-11-26T01:00:02Z,2021,1,0,330.0417,330.0417,61.645,-58.334,-999.0,3.37,-999.0,no,yes,no,300234068346200,SVPGHI,AOML,UNKNOWN,North
2021-11-26T01:59:57Z,2021,2,0,330.0833,330.0833,61.641,-58.34,-999.0,3.37,-999.0,no,yes,no,300234068346200,SVPGHI,AOML,UNKNOWN,North
2021-11-26T03:00:00Z,2021,3,0,330.125,330.125,61.638,-58.342,-999.0,3.37,-999.0,no,yes,no,300234068346200,SVPGHI,AOML,UNKNOWN,North
2021-11-26T04:00:02Z,2021,4,0,330.1667,330.1667,61.636,-58.348,-999.0,3.36,-999.0,no,yes,no,300234068346200,SVPGHI,AOML,UNKNOWN,North
2021-11-26T04:59:57Z,2021,5,0,330.2083,330.2083,61.631,-58.356,-999.0,3.35,-999.0,no,yes,no,300234068346200,SVPGHI,AOML,UNKNOWN,North
2021-11-26T06:00:00Z,2021,6,0,330.25,330.25,61.629,-58.363,-999.0,3.35,-999.0,no,yes,no,300234068346200,SVPGHI,AOML,UNKNOWN,North
2021-11-26T07:00:02Z,2021,7,0,330.2917,330.2917,61.627,-58.372,-999.0,3.35,-999.0,no,yes,no,300234068346200,SVPGHI,AOML,UNKNOWN,North
2021-11-26T07:59:57Z,2021,8,0,330.3333,330.3333,61.625,-58.38,-999.0,3.35,-999.0,no,yes,no,300234068346200,SVPGHI,AOML,UNKNOWN,North
2021-11-26T10:00:02Z,2021,10,0,330.4167,330.4167,61.63,-58.388,-999.0,3.35,-999.0,no,yes,no,300234068346200,SVPGHI,AOML,UNKNOWN,North
2021-11-26T13:01:03Z,2021,13,1,330.5424,330.5424,61.635,-58.403,-999.0,3.34,-999.0,no,yes,no,300234068346200,SVPGHI,AOML,UNKNOWN,North
2021-11-26T13:59:57Z,2021,14,0,330.5833,330.5833,61.635,-58.408,-999.0,3.33,-999.0,no,yes,no,300234068346200,SVPGHI,AOML,UNKNOWN,North
2021-11-26T15:00:00Z,2021,15,0,330.625,330.625,61.636,-58.415,-999.0,3.33,-999.0,no,yes,no,300234068346200,SVPGHI,AOML,UNKNOWN,North
2021-11-26T16:00:02Z,2021,16,0,330.6667,330.6667,61.636,-58.421,-999.0,3.31,-999.0,no,yes,no,300234068346200,SVPGHI,AOML,UNKNOWN,North
2021-11-26T16:59:57Z,2021,17,0,330.7083,330.7083,61.633,-58.42,-999.0,3.3,-999.0,no,yes,no,300234068346200,SVPGHI,AOML,UNKNOWN,North
2021-11-26T18:01:00Z,2021,18,1,330.7507,330.7507,61.628,-58.425,-999.0,3.28,-999.0,no,yes,no,300234068346200,SVPGHI,AOML,UNKNOWN,North
2021-11-26T19:00:02Z,2021,19,0,330.7917,330.7917,61.625,-58.434,-999.0,3.28,-999.0,no,yes,no,300234068346200,SVPGHI,AOML,UNKNOWN,North
2021-11-26T20:00:57Z,2021,20,1,330.834,330.834,61.623,-58.447,-999.0,3.28,-999.0,no,yes,no,300234068346200,SVPGHI,AOML,UNKNOWN,North
2021-11-26T21:00:00Z,2021,21,0,330.875,330.875,61.622,-58.459,-999.0,3.27,-999.0,no,yes,no,300234068346200,SVPGHI,AOML,UNKNOWN,North
2021-11-26T22:00:02Z,2021,22,0,330.9167,330.9167,61.621,-58.467,-999.0,3.27,-999.0,no,yes,no,300234068346200,SVPGHI,AOML,UNKNOWN,North
2021-11-26T22:59:57Z,2021,23,0,330.9583,330.9583,61.619,-58.472,-999.0,3.26,-999.0,no,yes,no,300234068346200,SVPGHI,AOML,UNKNOWN,North
2021-11-27T00:01:00Z,2021,0,1,331.0007,331.0007,61.619,-58.481,-999.0,3.27,-999.0,no,yes,no,300234068346200,SVPGHI,AOML,UNKNOWN,North
2021-11-27T01:01:03Z,2021,1,1,331.0424,331.0424,61.616,-58.494,-999.0,3.27,-999.0,no,yes,no,300234068346200,SVPGHI,AOML,UNKNOWN,North
2021-11-27T01:59:57Z,2021,2,0,331.0833,331.0833,61.616,-58.503,-999.0,3.26,-999.0,no,yes,no,300234068346200,SVPGHI,AOML,UNKNOWN,North
2021-11-27T03:00:00Z,2021,3,0,331.125,331.125,61.615,-58.507,-999.0,3.26,-999.0,no,yes,no,300234068346200,SVPGHI,AOML,UNKNOWN,North
2021-11-27T04:01:03Z,2021,4,1,331.1674,331.1674,61.615,-58.512,-999.0,3.25,-999.0,no,yes,no,300234068346200,SVPGHI,AOML,UNKNOWN,North
2021-11-27T05:03:59Z,2021,5,4,331.2111,331.2111,-90.0,-180.0,-999.0,3.25,-999.0,no,yes,no,300234068346200,SVPGHI,AOML,UNKNOWN,North
2021-11-27T06:04:01Z,2021,6,4,331.2528,331.2528,61.609,-58.517,-999.0,3.25,-999.0,no,yes,no,300234068346200,SVPGHI,AOML,UNKNOWN,North
2021-11-27T07:00:02Z,2021,7,0,331.2917,331.2917,61.604,-58.516,-999.0,3.25,-999.0,no,yes,no,300234068346200,SVPGHI,AOML,UNKNOWN,North
2021-11-27T07:59:57Z,2021,8,0,331.3333,331.3333,61.599,-58.521,-999.0,3.25,-999.0,no,yes,no,300234068346200,SVPGHI,AOML,UNKNOWN,North
2021-11-27T09:00:00Z,2021,9,0,331.375,331.375,61.596,-58.525,-999.0,3.26,-999.0,no,yes,no,300234068346200,SVPGHI,AOML,UNKNOWN,North
2021-11-27T10:00:02Z,2021,10,0,331.4167,331.4167,61.594,-58.523,-999.0,3.26,-999.0,no,yes,no,300234068346200,SVPGHI,AOML,UNKNOWN,North
2021-11-27T11:02:58Z,2021,11,3,331.4604,331.4604,61.59,-58.531,-999.0,3.26,-999.0,no,yes,no,300234068346200,SVPGHI,AOML,UNKNOWN,North
2021-11-27T12:00:00Z,2021,12,0,331.5,331.5,61.592,-58.542,-999.0,3.26,-999.0,no,yes,no,300234068346200,SVPGHI,AOML,UNKNOWN,North
2021-11-27T13:00:02Z,2021,13,0,331.5417,331.5417,61.592,-58.55,-999.0,3.26,-999.0,no,yes,no,300234068346200,SVPGHI,AOML,UNKNOWN,North
2021-11-27T13:59:57Z,2021,14,0,331.5833,331.5833,61.595,-58.551,-999.0,3.26,-999.0,no,yes,no,300234068346200,SVPGHI,AOML,UNKNOWN,North
2021-11-27T15:01:00Z,2021,15,1,331.6257,331.6257,61.596,-58.55,-999.0,3.27,-999.0,no,yes,no,300234068346200,SVPGHI,AOML,UNKNOWN,North
2021-11-27T16:00:02Z,2021,16,0,331.6667,331.6667,61.598,-58.548,-999.0,3.28,-999.0,no,yes,no,300234068346200,SVPGHI,AOML,UNKNOWN,North
2021-11-27T16:59:57Z,2021,17,0,331.7083,331.7083,61.595,-58.541,-999.0,3.28,-999.0,no,yes,no,300234068346200,SVPGHI,AOML,UNKNOWN,North
2021-11-27T18:00:00Z,2021,18,0,331.75,331.75,61.589,-58.539,-999.0,3.28,-999.0,no,yes,no,300234068346200,SVPGHI,AOML,UNKNOWN,North
2021-11-27T19:03:04Z,2021,19,3,331.7938,331.7938,61.585,-58.54,-999.0,3.29,-999.0,no,yes,no,300234068346200,SVPGHI,AOML,UNKNOWN,North
2021-11-27T19:59:57Z,2021,20,0,331.8333,331.8333,61.581,-58.537,-999.0,3.29,-999.0,no,yes,no,300234068346200,SVPGHI,AOML,UNKNOWN,North
2021-11-27T21:00:00Z,2021,21,0,331.875,331.875,61.576,-58.534,-999.0,3.29,-999.0,no,yes,no,300234068346200,SVPGHI,AOML,UNKNOWN,North
2021-11-27T22:00:02Z,2021,22,0,331.9167,331.9167,61.571,-58.531,-999.0,3.29,-999.0,no,yes,no,300234068346200,SVPGHI,AOML,UNKNOWN,North
2021-11-27T22:59:57Z,2021,23,0,331.9583,331.9583,61.564,-58.538,-999.0,3.29,-999.0,no,yes,no,300234068346200,SVPGHI,AOML,UNKNOWN,North
2021-11-28T01:00:02Z,2021,1,0,332.0417,332.0417,61.558,-58.548,-999.0,3.28,-999.0,no,yes,no,300234068346200,SVPGHI,AOML,UNKNOWN,North
2021-11-28T02:00:57Z,2021,2,1,332.084,332.084,61.556,-58.552,-999.0,3.25,-999.0,no,yes,no,300234068346200,SVPGHI,AOML,UNKNOWN,North
2021-11-28T03:01:00Z,2021,3,1,332.1257,332.1257,61.554,-58.548,-999.0,3.24,-999.0,no,yes,no,300234068346200,SVPGHI,AOML,UNKNOWN,North
2021-11-28T04:00:02Z,2021,4,0,332.1667,332.1667,61.554,-58.547,-999.0,3.23,-999.0,no,yes,no,300234068346200,SVPGHI,AOML,UNKNOWN,North
2021-11-28T05:01:58Z,2021,5,2,332.2097,332.2097,61.548,-58.545,-999.0,3.27,-999.0,no,yes,no,300234068346200,SVPGHI,AOML,UNKNOWN,North
2021-11-28T06:00:00Z,2021,6,0,332.25,332.25,61.543,-58.546,-999.0,3.27,-999.0,no,yes,no,300234068346200,SVPGHI,AOML,UNKNOWN,North
2021-11-28T07:01:03Z,2021,7,1,332.2924,332.2924,61.538,-58.545,-999.0,3.27,-999.0,no,yes,no,300234068346200,SVPGHI,AOML,UNKNOWN,North
2021-11-28T07:59:57Z,2021,8,0,332.3333,332.3333,61.534,-58.547,-999.0,3.27,-999.0,no,yes,no,300234068346200,SVPGHI,AOML,UNKNOWN,North
2021-11-28T09:00:00Z,2021,9,0,332.375,332.375,61.531,-58.548,-999.0,3.27,-999.0,no,yes,no,300234068346200,SVPGHI,AOML,UNKNOWN,North
2021-11-28T10:00:02Z,2021,10,0,332.4167,332.4167,61.528,-58.548,-999.0,3.27,-999.0,no,yes,no,300234068346200,SVPGHI,AOML,UNKNOWN,North
2021-11-28T10:59:57Z,2021,11,0,332.4583,332.4583,61.527,-58.554,-999.0,3.27,-999.0,no,yes,no,300234068346200,SVPGHI,AOML,UNKNOWN,North
2021-11-28T12:00:00Z,2021,12,0,332.5,332.5,61.525,-58.557,-999.0,3.27,-999.0,no,yes,no,300234068346200,SVPGHI,AOML,UNKNOWN,North
2021-11-28T13:00:02Z,2021,13,0,332.5417,332.5417,61.529,-58.556,-999.0,3.27,-999.0,no,yes,no,300234068346200,SVPGHI,AOML,UNKNOWN,North
2021-11-28T13:59:57Z,2021,14,0,332.5833,332.5833,61.531,-58.556,-999.0,3.28,-999.0,no,yes,no,300234068346200,SVPGHI,AOML,UNKNOWN,North
2021-11-28T15:00:00Z,2021,15,0,332.625,332.625,61.532,-58.55,-999.0,3.28,-999.0,no,yes,no,300234068346200,SVPGHI,AOML,UNKNOWN,North
2021-11-28T16:00:02Z,2021,16,0,332.6667,332.6667,61.528,-58.545,-999.0,3.28,-999.0,no,yes,no,300234068346200,SVPGHI,AOML,UNKNOWN,North
2021-11-28T16:59:57Z,2021,17,0,332.7083,332.7083,61.523,-58.549,-999.0,3.28,-999.0,no,yes,no,300234068346200,SVPGHI,AOML,UNKNOWN,North
2021-11-28T18:00:00Z,2021,18,0,332.75,332.75,61.519,-58.56,-999.0,3.28,-999.0,no,yes,no,300234068346200,SVPGHI,AOML,UNKNOWN,North
2021-11-28T19:00:02Z,2021,19,0,332.7917,332.7917,61.518,-58.573,-999.0,3.28,-999.0,no,yes,no,300234068346200,SVPGHI,AOML,UNKNOWN,North
2021-11-28T19:59:57Z,2021,20,0,332.8333,332.8333,61.519,-58.579,-999.0,3.28,-999.0,no,yes,no,300234068346200,SVPGHI,AOML,UNKNOWN,North
2021-11-28T21:00:00Z,2021,21,0,332.875,332.875,61.521,-58.579,-999.0,3.27,-999.0,no,yes,no,300234068346200,SVPGHI,AOML,UNKNOWN,North
2021-11-28T22:01:03Z,2021,22,1,332.9174,332.9174,61.526,-58.58,-999.0,3.27,-999.0,no,yes,no,300234068346200,SVPGHI,AOML,UNKNOWN,North
2021-11-28T23:01:58Z,2021,23,2,332.9597,332.9597,61.531,-58.572,-999.0,3.26,-999.0,no,yes,no,300234068346200,SVPGHI,AOML,UNKNOWN,North
2021-11-29T00:00:00Z,2021,0,0,333.0,333.0,61.532,-58.56,-999.0,3.27,-999.0,no,yes,no,300234068346200,SVPGHI,AOML,UNKNOWN,North
2021-11-29T01:01:03Z,2021,1,1,333.0424,333.0424,61.534,-58.537,-999.0,3.27,-999.0,no,yes,no,300234068346200,SVPGHI,AOML,UNKNOWN,North
2021-11-29T01:59:57Z,2021,2,0,333.0833,333.0833,61.531,-58.534,-999.0,3.26,-999.0,no,yes,no,300234068346200,SVPGHI,AOML,UNKNOWN,North
2021-11-29T03:00:00Z,2021,3,0,333.125,333.125,61.527,-58.527,-999.0,3.26,-999.0,no,yes,no,300234068346200,SVPGHI,AOML,UNKNOWN,North
2021-11-29T04:00:02Z,2021,4,0,333.1667,333.1667,61.521,-58.525,-999.0,3.25,-999.0,no,yes,no,300234068346200,SVPGHI,AOML,UNKNOWN,North
2021-11-29T04:59:57Z,2021,5,0,333.2083,333.2083,61.516,-58.53,-999.0,3.25,-999.0,no,yes,no,300234068346200,SVPGHI,AOML,UNKNOWN,North
2021-11-29T06:00:00Z,2021,6,0,333.25,333.25,61.513,-58.539,-999.0,3.26,-999.0,no,yes,no,300234068346200,SVPGHI,AOML,UNKNOWN,North
2021-11-29T07:00:02Z,2021,7,0,333.2917,333.2917,61.51,-58.552,-999.0,3.26,-999.0,no,yes,no,300234068346200,SVPGHI,AOML,UNKNOWN,North
2021-11-29T07:59:57Z,2021,8,0,333.3333,333.3333,61.51,-58.568,-999.0,3.25,-999.0,no,yes,no,300234068346200,SVPGHI,AOML,UNKNOWN,North
2021-11-29T09:00:00Z,2021,9,0,333.375,333.375,61.513,-58.578,-999.0,3.25,-999.0,no,yes,no,300234068346200,SVPGHI,AOML,UNKNOWN,North
2021-11-29T10:00:02Z,2021,10,0,333.4167,333.4167,61.521,-58.579,-999.0,3.25,-999.0,no,yes,no,300234068346200,SVPGHI,AOML,UNKNOWN,North
2021-11-29T10:59:57Z,2021,11,0,333.4583,333.4583,61.527,-58.575,-999.0,3.25,-999.0,no,yes,no,300234068346200,SVPGHI,AOML,UNKNOWN,North
2021-11-29T12:01:00Z,2021,12,1,333.5007,333.5007,61.533,-58.564,-999.0,3.25,-999.0,no,yes,no,300234068346200,SVPGHI,AOML,UNKNOWN,North
2021-11-29T13:00:02Z,2021,13,0,333.5417,333.5417,61.539,-58.544,-999.0,3.25,-999.0,no,yes,no,300234068346200,SVPGHI,AOML,UNKNOWN,North
2021-11-29T13:59:57Z,2021,14,0,333.5833,333.5833,61.54,-58.526,-999.0,3.24,-999.0,no,yes,no,300234068346200,SVPGHI,AOML,UNKNOWN,North
2021-11-29T15:01:00Z,2021,15,1,333.6257,333.6257,61.537,-58.514,-999.0,3.24,-999.0,no,yes,no,300234068346200,SVPGHI,AOML,UNKNOWN,North
2021-11-29T16:00:02Z,2021,16,0,333.6667,333.6667,61.534,-58.503,-999.0,3.23,-999.0,no,yes,no,300234068346200,SVPGHI,AOML,UNKNOWN,North
2021-11-29T16:59:57Z,2021,17,0,333.7083,333.7083,61.525,-58.5,-999.0,3.23,-999.0,no,yes,no,300234068346200,SVPGHI,AOML,UNKNOWN,North
2021-11-29T18:00:00Z,2021,18,0,333.75,333.75,61.516,-58.505,-999.0,3.23,-999.0,no,yes,no,300234068346200,SVPGHI,AOML,UNKNOWN,North
2021-11-29T19:00:02Z,2021,19,0,333.7917,333.7917,61.508,-58.517,-999.0,3.22,-999.0,no,yes,no,300234068346200,SVPGHI,AOML,UNKNOWN,North
2021-11-29T19:59:57Z,2021,20,0,333.8333,333.8333,61.502,-58.526,-999.0,3.22,-999.0,no,yes,no,300234068346200,SVPGHI,AOML,UNKNOWN,North
2021-11-29T21:01:00Z,2021,21,1,333.8757,333.8757,61.502,-58.54,-999.0,3.23,-999.0,no,yes,no,300234068346200,SVPGHI,AOML,UNKNOWN,North
2021-11-29T22:00:02Z,2021,22,0,333.9167,333.9167,61.501,-58.55,-999.0,3.24,-999.0,no,yes,no,300234068346200,SVPGHI,AOML,UNKNOWN,North
2021-11-29T22:59:57Z,2021,23,0,333.9583,333.9583,61.504,-58.549,-999.0,3.24,-999.0,no,yes,no,300234068346200,SVPGHI,AOML,UNKNOWN,North
2021-11-30T00:00:00Z,2021,0,0,334.0,334.0,61.506,-58.546,-999.0,3.24,-999.0,no,yes,no,300234068346200,SVPGHI,AOML,UNKNOWN,North
2021-11-30T01:03:56Z,2021,1,4,334.0444,334.0444,61.512,-58.527,-999.0,3.24,-999.0,no,yes,no,300234068346200,SVPGHI,AOML,UNKNOWN,North
2021-11-30T01:59:57Z,2021,2,0,334.0833,334.0833,61.511,-58.504,-999.0,3.23,-999.0,no,yes,no,300234068346200,SVPGHI,AOML,UNKNOWN,North
2021-11-30T03:00:00Z,2021,3,0,334.125,334.125,61.508,-58.485,-999.0,3.23,-999.0,no,yes,no,300234068346200,SVPGHI,AOML,UNKNOWN,North
2021-11-30T04:01:03Z,2021,4,1,334.1674,334.1674,61.5,-58.467,-999.0,3.23,-999.0,no,yes,no,300234068346200,SVPGHI,AOML,UNKNOWN,North
2021-11-30T05:03:59Z,2021,5,4,334.2111,334.2111,61.486,-58.455,-999.0,3.25,-999.0,no,yes,no,300234068346200,SVPGHI,AOML,UNKNOWN,North
2021-11-30T07:01:03Z,2021,7,1,334.2924,334.2924,61.471,-58.462,-999.0,3.25,-999.0,no,yes,no,300234068346200,SVPGHI,AOML,UNKNOWN,North
2021-11-30T07:59:57Z,2021,8,0,334.3333,334.3333,61.465,-58.476,-999.0,3.24,-999.0,no,yes,no,300234068346200,SVPGHI,AOML,UNKNOWN,North
2021-11-30T09:00:00Z,2021,9,0,334.375,334.375,61.461,-58.491,-999.0,3.22,-999.0,no,yes,no,300234068346200,SVPGHI,AOML,UNKNOWN,North
2021-11-30T10:03:56Z,2021,10,4,334.4194,334.4194,61.46,-58.502,-999.0,3.22,-999.0,no,yes,no,300234068346200,SVPGHI,AOML,UNKNOWN,North
2021-11-30T12:00:00Z,2021,12,0,334.5,334.5,61.469,-58.509,-999.0,3.22,-999.0,no,yes,no,300234068346200,SVPGHI,AOML,UNKNOWN,North
2021-11-30T13:00:02Z,2021,13,0,334.5417,334.5417,61.475,-58.5,-999.0,3.24,-999.0,no,yes,no,300234068346200,SVPGHI,AOML,UNKNOWN,North
2021-11-30T13:59:57Z,2021,14,0,334.5833,334.5833,61.48,-58.483,-999.0,3.24,-999.0,no,yes,no,300234068346200,SVPGHI,AOML,UNKNOWN,North
2021-11-30T15:03:01Z,2021,15,3,334.6271,334.6271,61.482,-58.467,-999.0,3.23,-999.0,no,yes,no,300234068346200,SVPGHI,AOML,UNKNOWN,North
2021-11-30T16:00:02Z,2021,16,0,334.6667,334.6667,61.483,-58.454,-999.0,3.22,-999.0,no,yes,no,300234068346200,SVPGHI,AOML,UNKNOWN,North
2021-11-30T16:59:57Z,2021,17,0,334.7083,334.7083,61.481,-58.443,-999.0,3.2,-999.0,no,yes,no,300234068346200,SVPGHI,AOML,UNKNOWN,North
2021-11-30T18:00:00Z,2021,18,0,334.75,334.75,61.475,-58.437,-999.0,3.16,-999.0,no,yes,no,300234068346200,SVPGHI,AOML,UNKNOWN,North
2021-11-30T19:01:03Z,2021,19,1,334.7924,334.7924,61.468,-58.44,-999.0,3.18,-999.0,no,yes,no,300234068346200,SVPGHI,AOML,UNKNOWN,North
2021-11-30T20:00:57Z,2021,20,1,334.834,334.834,61.462,-58.439,-999.0,3.19,-999.0,no,yes,no,300234068346200,SVPGHI,AOML,UNKNOWN,North
2021-11-30T21:01:00Z,2021,21,1,334.8757,334.8757,61.454,-58.444,-999.0,3.2,-999.0,no,yes,no,300234068346200,SVPGHI,AOML,UNKNOWN,North
2021-11-30T22:01:03Z,2021,22,1,334.9174,334.9174,61.447,-58.458,-999.0,3.19,-999.0,no,yes,no,300234068346200,SVPGHI,AOML,UNKNOWN,North
2021-11-30T22:59:57Z,2021,23,0,334.9583,334.9583,61.447,-58.472,-999.0,3.18,-999.0,no,yes,no,300234068346200,SVPGHI,AOML,UNKNOWN,North
2021-12-01T00:00:00Z,2021,0,0,335.0,335.0,61.448,-58.481,-999.0,3.18,-999.0,no,yes,no,300234068346200,SVPGHI,AOML,UNKNOWN,North
2021-12-01T01:00:02Z,2021,1,0,335.0417,335.0417,61.45,-58.489,-999.0,3.18,-999.0,no,yes,no,300234068346200,SVPGHI,AOML,UNKNOWN,North
2021-12-01T01:59:57Z,2021,2,0,335.0833,335.0833,61.459,-58.489,-999.0,3.17,-999.0,no,yes,no,300234068346200,SVPGHI,AOML,UNKNOWN,North
2021-12-01T03:00:00Z,2021,3,0,335.125,335.125,61.461,-58.486,-999.0,3.17,-999.0,no,yes,no,300234068346200,SVPGHI,AOML,UNKNOWN,North
2021-12-01T04:01:03Z,2021,4,1,335.1674,335.1674,61.463,-58.478,-999.0,3.17,-999.0,no,yes,no,300234068346200,SVPGHI,AOML,UNKNOWN,North
2021-12-01T06:00:00Z,2021,6,0,335.25,335.25,61.463,-58.465,-999.0,3.16,-999.0,no,yes,no,300234068346200,SVPGHI,AOML,UNKNOWN,North
2021-12-01T07:00:02Z,2021,7,0,335.2917,335.2917,61.456,-58.461,-999.0,3.16,-999.0,no,yes,no,300234068346200,SVPGHI,AOML,UNKNOWN,North
2021-12-01T08:00:57Z,2021,8,1,335.334,335.334,61.447,-58.468,-999.0,3.17,-999.0,no,yes,no,300234068346200,SVPGHI,AOML,UNKNOWN,North
2021-12-01T09:01:00Z,2021,9,1,335.3757,335.3757,61.436,-58.474,-999.0,3.17,-999.0,no,yes,no,300234068346200,SVPGHI,AOML,UNKNOWN,North
2021-12-01T10:03:56Z,2021,10,4,335.4194,335.4194,61.426,-58.483,-999.0,3.18,-999.0,no,yes,no,300234068346200,SVPGHI,AOML,UNKNOWN,North
2021-12-01T11:00:57Z,2021,11,1,335.459,335.459,61.419,-58.501,-999.0,3.18,-999.0,no,yes,no,300234068346200,SVPGHI,AOML,UNKNOWN,North
2021-12-01T12:03:01Z,2021,12,3,335.5021,335.5021,61.415,-58.516,-999.0,3.18,-999.0,no,yes,no,300234068346200,SVPGHI,AOML,UNKNOWN,North
2021-12-01T13:00:02Z,2021,13,0,335.5417,335.5417,61.412,-58.526,-999.0,3.18,-999.0,no,yes,no,300234068346200,SVPGHI,AOML,UNKNOWN,North
2021-12-01T14:00:57Z,2021,14,1,335.584,335.584,61.412,-58.535,-999.0,3.2,-999.0,no,yes,no,300234068346200,SVPGHI,AOML,UNKNOWN,North
2021-12-01T15:01:00Z,2021,15,1,335.6257,335.6257,61.414,-58.542,-999.0,3.22,-999.0,no,yes,no,300234068346200,SVPGHI,AOML,UNKNOWN,North